Time,TemperatureF,DewpointF,PressureIn,WindDirection,WindDirectionDegrees,WindSpeedMPH,WindSpeedGustMPH,Humidity,HourlyPrecipIn,Conditions,Clouds,dailyrainin,SoftwareType,DateUTC
2013-10-12 00:01:00,60.9,45.0,30.15,East,90,7.0,11.0,56,0.00,,,0.00,Rainwise IP-100,2013-10-12 04:01:00,
2013-10-12 00:06:00,60.8,44.0,30.15,East,90,4.0,10.0,55,0.00,,,0.00,Rainwise IP-100,2013-10-12 04:06:00,
2013-10-12 00:11:00,60.7,44.0,30.15,NNE,22,6.5,13.0,54,0.00,,,0.00,Rainwise IP-100,2013-10-12 04:11:00,
2013-10-12 00:16:00,60.6,44.0,30.15,ENE,67,5.8,13.0,54,0.00,,,0.00,Rainwise IP-100,2013-10-12 04:16:00,
2013-10-12 00:21:00,60.5,44.0,30.15,ESE,112,6.1,12.0,54,0.00,,,0.00,Rainwise IP-100,2013-10-12 04:21:00,
2013-10-12 00:26:00,60.5,44.0,30.16,ENE,67,3.7,12.0,54,0.00,,,0.00,Rainwise IP-100,2013-10-12 04:26:00,
2013-10-12 00:31:00,60.4,44.0,30.16,East,90,9.1,13.0,54,0.00,,,0.00,Rainwise IP-100,2013-10-12 04:31:00,
2013-10-12 00:36:00,60.3,43.0,30.16,East,90,2.6,14.0,54,0.00,,,0.00,Rainwise IP-100,2013-10-12 04:36:00,
2013-10-12 00:41:00,60.1,43.0,30.16,ESE,112,5.8,13.0,54,0.00,,,0.00,Rainwise IP-100,2013-10-12 04:41:00,
2013-10-12 00:46:00,59.9,44.0,30.15,ESE,112,6.1,9.0,55,0.00,,,0.00,Rainwise IP-100,2013-10-12 04:46:00,
2013-10-12 00:51:00,59.7,43.0,30.15,East,90,8.9,15.0,55,0.00,,,0.00,Rainwise IP-100,2013-10-12 04:51:00,
2013-10-12 00:56:00,59.7,43.0,30.16,ENE,67,2.8,12.0,55,0.00,,,0.00,Rainwise IP-100,2013-10-12 04:56:00,
2013-10-12 01:01:00,59.7,43.0,30.16,ENE,67,5.6,12.0,55,0.00,,,0.00,Rainwise IP-100,2013-10-12 05:01:00,
2013-10-12 01:06:00,59.7,43.0,30.15,East,90,7.2,12.0,55,0.00,,,0.00,Rainwise IP-100,2013-10-12 05:06:00,
2013-10-12 01:11:00,59.7,43.0,30.16,NE,45,8.4,17.0,55,0.00,,,0.00,Rainwise IP-100,2013-10-12 05:11:00,
2013-10-12 01:16:00,59.8,44.0,30.15,East,90,8.6,15.0,56,0.00,,,0.00,Rainwise IP-100,2013-10-12 05:16:00,
2013-10-12 01:21:00,59.8,44.0,30.15,ESE,112,5.4,12.0,56,0.00,,,0.00,Rainwise IP-100,2013-10-12 05:21:00,
2013-10-12 01:26:00,59.9,44.0,30.15,ESE,112,3.7,14.0,56,0.00,,,0.00,Rainwise IP-100,2013-10-12 05:26:00,
2013-10-12 01:31:00,59.9,45.0,30.16,ENE,67,3.5,13.0,57,0.00,,,0.00,Rainwise IP-100,2013-10-12 05:31:00,
2013-10-12 01:36:00,59.9,45.0,30.16,North,360,1.2,11.0,58,0.00,,,0.00,Rainwise IP-100,2013-10-12 05:36:00,
2013-10-12 01:41:00,59.9,45.0,30.16,ESE,112,4.4,13.0,58,0.00,,,0.00,Rainwise IP-100,2013-10-12 05:41:00,
2013-10-12 01:46:00,59.9,46.0,30.16,East,90,11.7,14.0,59,0.00,,,0.00,Rainwise IP-100,2013-10-12 05:46:00,
2013-10-12 01:51:00,59.9,46.0,30.16,ESE,112,4.9,14.0,60,0.00,,,0.00,Rainwise IP-100,2013-10-12 05:51:00,
2013-10-12 01:56:00,59.8,46.0,30.16,ESE,112,5.8,13.0,60,0.00,,,0.00,Rainwise IP-100,2013-10-12 05:56:00,
2013-10-12 02:01:00,59.7,46.0,30.16,East,90,8.4,13.0,60,0.00,,,0.00,Rainwise IP-100,2013-10-12 06:01:00,
2013-10-12 02:06:00,59.5,45.0,30.16,East,90,8.9,13.0,59,0.00,,,0.00,Rainwise IP-100,2013-10-12 06:06:00,
2013-10-12 02:11:00,59.5,45.0,30.16,ENE,67,6.8,16.0,59,0.00,,,0.00,Rainwise IP-100,2013-10-12 06:11:00,
2013-10-12 02:16:00,59.5,45.0,30.17,NNE,22,6.5,15.0,59,0.00,,,0.00,Rainwise IP-100,2013-10-12 06:16:00,
2013-10-12 02:21:00,59.6,46.0,30.17,ESE,112,11.2,16.0,60,0.00,,,0.00,Rainwise IP-100,2013-10-12 06:21:00,
2013-10-12 02:26:00,59.4,45.0,30.17,ESE,112,10.7,16.0,59,0.00,,,0.00,Rainwise IP-100,2013-10-12 06:26:00,
2013-10-12 02:31:00,59.3,45.0,30.17,ESE,112,15.6,15.6,59,0.00,,,0.00,Rainwise IP-100,2013-10-12 06:31:00,
2013-10-12 02:36:00,59.3,44.0,30.16,ESE,112,3.5,19.0,58,0.00,,,0.00,Rainwise IP-100,2013-10-12 06:36:00,
2013-10-12 02:41:00,59.3,44.0,30.16,ESE,112,3.7,12.0,58,0.00,,,0.00,Rainwise IP-100,2013-10-12 06:41:00,
2013-10-12 02:46:00,59.2,45.0,30.16,East,90,13.8,13.8,59,0.00,,,0.00,Rainwise IP-100,2013-10-12 06:46:00,
2013-10-12 02:51:00,59.2,45.0,30.16,ENE,67,8.4,15.0,60,0.00,,,0.00,Rainwise IP-100,2013-10-12 06:51:00,
2013-10-12 02:56:00,59.2,45.0,30.16,East,90,5.6,21.0,60,0.00,,,0.00,Rainwise IP-100,2013-10-12 06:56:00,
2013-10-12 03:01:00,59.2,45.0,30.17,SE,135,6.1,14.0,60,0.00,,,0.00,Rainwise IP-100,2013-10-12 07:01:00,
2013-10-12 03:06:00,59.2,46.0,30.17,ESE,112,6.8,12.0,61,0.00,,,0.00,Rainwise IP-100,2013-10-12 07:06:00,
2013-10-12 03:11:00,59.2,46.0,30.17,East,90,8.6,17.0,61,0.00,,,0.00,Rainwise IP-100,2013-10-12 07:11:00,
2013-10-12 03:16:00,59.2,46.0,30.17,East,90,11.4,15.0,61,0.00,,,0.00,Rainwise IP-100,2013-10-12 07:16:00,
2013-10-12 03:21:00,59.1,46.0,30.17,East,90,5.6,13.0,61,0.00,,,0.00,Rainwise IP-100,2013-10-12 07:21:00,
2013-10-12 03:26:00,59.0,46.0,30.17,ENE,67,6.8,11.0,61,0.00,,,0.00,Rainwise IP-100,2013-10-12 07:26:00,
2013-10-12 03:31:00,58.8,46.0,30.17,ESE,112,5.6,13.0,62,0.00,,,0.00,Rainwise IP-100,2013-10-12 07:31:00,
2013-10-12 03:36:00,58.7,47.0,30.17,East,90,11.7,12.0,63,0.00,,,0.00,Rainwise IP-100,2013-10-12 07:36:00,
2013-10-12 03:41:00,58.7,47.0,30.17,ENE,67,6.1,13.0,64,0.00,,,0.00,Rainwise IP-100,2013-10-12 07:41:00,
2013-10-12 03:46:00,58.6,47.0,30.17,East,90,7.2,14.0,66,0.00,,,0.00,Rainwise IP-100,2013-10-12 07:46:00,
2013-10-12 03:51:00,58.5,48.0,30.17,ENE,67,6.1,12.0,67,0.00,,,0.00,Rainwise IP-100,2013-10-12 07:51:00,
2013-10-12 03:56:00,58.4,47.0,30.17,East,90,7.0,12.0,68,0.00,,,0.00,Rainwise IP-100,2013-10-12 07:56:00,
2013-10-12 04:01:00,58.3,47.0,30.17,East,90,13.8,14.0,68,0.00,,,0.00,Rainwise IP-100,2013-10-12 08:01:00,
2013-10-12 04:06:00,58.3,48.0,30.17,ENE,67,8.6,13.0,69,0.00,,,0.00,Rainwise IP-100,2013-10-12 08:06:00,
2013-10-12 04:11:00,58.4,48.0,30.17,East,90,5.8,15.0,69,0.00,,,0.00,Rainwise IP-100,2013-10-12 08:11:00,
2013-10-12 04:16:00,58.5,49.0,30.17,ESE,112,6.8,14.0,69,0.00,,,0.00,Rainwise IP-100,2013-10-12 08:16:00,
2013-10-12 04:21:00,58.7,49.0,30.17,ENE,67,5.6,15.0,69,0.00,,,0.00,Rainwise IP-100,2013-10-12 08:21:00,
2013-10-12 04:26:00,58.7,49.0,30.17,East,90,6.8,15.0,69,0.00,,,0.00,Rainwise IP-100,2013-10-12 08:26:00,
2013-10-12 04:31:00,58.7,48.0,30.17,East,90,10.3,15.0,68,0.00,,,0.00,Rainwise IP-100,2013-10-12 08:31:00,
2013-10-12 04:36:00,58.6,48.0,30.18,NNE,22,2.8,15.0,68,0.00,,,0.00,Rainwise IP-100,2013-10-12 08:36:00,
2013-10-12 04:41:00,58.5,48.0,30.18,ESE,112,6.1,13.0,68,0.00,,,0.00,Rainwise IP-100,2013-10-12 08:41:00,
2013-10-12 04:46:00,58.5,49.0,30.18,ENE,67,6.5,14.0,69,0.00,,,0.00,Rainwise IP-100,2013-10-12 08:46:00,
2013-10-12 04:51:00,58.6,49.0,30.18,ESE,112,7.7,15.0,69,0.00,,,0.00,Rainwise IP-100,2013-10-12 08:51:00,
2013-10-12 04:56:00,58.7,49.0,30.18,NNE,22,7.2,16.0,69,0.00,,,0.00,Rainwise IP-100,2013-10-12 08:56:00,
2013-10-12 05:01:00,58.7,49.0,30.18,East,90,14.5,14.5,69,0.00,,,0.00,Rainwise IP-100,2013-10-12 09:01:00,
2013-10-12 05:06:00,58.7,49.0,30.18,ENE,67,4.0,19.0,69,0.00,,,0.00,Rainwise IP-100,2013-10-12 09:06:00,
2013-10-12 05:11:00,58.7,49.0,30.18,ENE,67,14.5,16.0,69,0.00,,,0.00,Rainwise IP-100,2013-10-12 09:11:00,
2013-10-12 05:16:00,58.7,49.0,30.19,SE,135,3.0,18.0,69,0.00,,,0.00,Rainwise IP-100,2013-10-12 09:16:00,
2013-10-12 05:21:00,58.8,49.0,30.19,ESE,112,12.8,12.8,69,0.00,,,0.00,Rainwise IP-100,2013-10-12 09:21:00,
2013-10-12 05:26:00,58.8,49.0,30.19,ESE,112,5.6,14.0,70,0.00,,,0.00,Rainwise IP-100,2013-10-12 09:26:00,
2013-10-12 05:31:00,58.8,49.0,30.18,ESE,112,10.7,18.0,70,0.00,,,0.00,Rainwise IP-100,2013-10-12 09:31:00,
2013-10-12 05:36:00,58.8,50.0,30.19,ENE,67,5.1,18.0,71,0.00,,,0.00,Rainwise IP-100,2013-10-12 09:36:00,
2013-10-12 05:41:00,58.9,50.0,30.19,ESE,112,12.4,16.0,71,0.00,,,0.00,Rainwise IP-100,2013-10-12 09:41:00,
2013-10-12 05:46:00,58.9,50.0,30.19,ESE,112,6.1,14.0,71,0.00,,,0.00,Rainwise IP-100,2013-10-12 09:46:00,
2013-10-12 05:51:00,58.9,50.0,30.19,ENE,67,10.0,19.0,72,0.00,,,0.00,Rainwise IP-100,2013-10-12 09:51:00,
2013-10-12 05:56:00,59.0,50.0,30.19,ESE,112,6.1,13.0,72,0.00,,,0.00,Rainwise IP-100,2013-10-12 09:56:00,
2013-10-12 06:01:00,59.0,50.0,30.19,ESE,112,7.5,15.0,72,0.00,,,0.00,Rainwise IP-100,2013-10-12 10:01:00,
2013-10-12 06:06:00,59.0,50.0,30.19,East,90,4.7,18.0,72,0.00,,,0.00,Rainwise IP-100,2013-10-12 10:06:00,
2013-10-12 06:11:00,59.0,50.0,30.19,ESE,112,6.1,16.0,72,0.00,,,0.00,Rainwise IP-100,2013-10-12 10:11:00,
2013-10-12 06:16:00,59.0,50.0,30.19,ESE,112,7.0,14.0,73,0.00,,,0.00,Rainwise IP-100,2013-10-12 10:16:00,
2013-10-12 06:21:00,59.0,50.0,30.19,East,90,9.6,16.0,73,0.00,,,0.00,Rainwise IP-100,2013-10-12 10:21:00,
2013-10-12 06:26:00,59.0,50.0,30.19,ESE,112,4.2,18.0,73,0.00,,,0.00,Rainwise IP-100,2013-10-12 10:26:00,
2013-10-12 06:31:00,59.0,50.0,30.19,NNE,22,3.0,14.0,73,0.00,,,0.00,Rainwise IP-100,2013-10-12 10:31:00,
2013-10-12 06:36:00,59.0,50.0,30.19,ESE,112,3.7,16.0,73,0.00,,,0.00,Rainwise IP-100,2013-10-12 10:36:00,
2013-10-12 06:41:00,59.0,50.0,30.19,ENE,67,5.8,13.0,73,0.00,,,0.00,Rainwise IP-100,2013-10-12 10:41:00,
2013-10-12 06:46:00,59.0,50.0,30.19,NE,45,6.5,14.0,73,0.00,,,0.00,Rainwise IP-100,2013-10-12 10:46:00,
2013-10-12 06:51:00,59.1,50.0,30.19,NNE,22,6.3,18.0,74,0.00,,,0.00,Rainwise IP-100,2013-10-12 10:51:00,
2013-10-12 06:56:00,59.0,50.0,30.20,ENE,67,3.0,14.0,74,0.00,,,0.00,Rainwise IP-100,2013-10-12 10:56:00,
2013-10-12 07:01:00,59.0,50.0,30.20,ESE,112,9.1,14.0,74,0.00,,,0.00,Rainwise IP-100,2013-10-12 11:01:00,
2013-10-12 07:06:00,59.0,50.0,30.20,ENE,67,3.3,14.0,74,0.00,,,0.00,Rainwise IP-100,2013-10-12 11:06:00,
2013-10-12 07:11:00,59.0,51.0,30.21,East,90,11.7,13.0,75,0.00,,,0.00,Rainwise IP-100,2013-10-12 11:11:00,
2013-10-12 07:16:00,59.0,51.0,30.21,ESE,112,7.2,14.0,75,0.00,,,0.00,Rainwise IP-100,2013-10-12 11:16:00,
2013-10-12 07:21:00,59.1,51.0,30.20,SE,135,6.8,14.0,75,0.00,,,0.00,Rainwise IP-100,2013-10-12 11:21:00,
2013-10-12 07:26:00,59.2,51.0,30.21,East,90,4.9,17.0,75,0.00,,,0.00,Rainwise IP-100,2013-10-12 11:26:00,
2013-10-12 07:31:00,59.2,51.0,30.21,ENE,67,11.0,17.0,75,0.00,,,0.00,Rainwise IP-100,2013-10-12 11:31:00,
2013-10-12 07:36:00,59.3,51.0,30.21,ENE,67,8.9,16.0,75,0.00,,,0.00,Rainwise IP-100,2013-10-12 11:36:00,
2013-10-12 07:41:00,59.4,51.0,30.21,ESE,112,11.2,18.0,75,0.00,,,0.00,Rainwise IP-100,2013-10-12 11:41:00,
2013-10-12 07:46:00,59.4,51.0,30.21,ENE,67,7.7,18.0,75,0.00,,,0.00,Rainwise IP-100,2013-10-12 11:46:00,
2013-10-12 07:51:00,59.5,51.0,30.22,East,90,8.9,18.0,75,0.00,,,0.00,Rainwise IP-100,2013-10-12 11:51:00,
2013-10-12 07:56:00,59.6,52.0,30.22,ENE,67,12.8,14.0,76,0.00,,,0.00,Rainwise IP-100,2013-10-12 11:56:00,
2013-10-12 08:01:00,59.6,52.0,30.22,ESE,112,6.1,18.0,76,0.00,,,0.00,Rainwise IP-100,2013-10-12 12:01:00,
2013-10-12 08:06:00,59.6,52.0,30.22,East,90,10.0,13.0,76,0.00,,,0.00,Rainwise IP-100,2013-10-12 12:06:00,
2013-10-12 08:11:00,59.6,52.0,30.22,ESE,112,4.4,13.0,77,0.00,,,0.00,Rainwise IP-100,2013-10-12 12:11:00,
2013-10-12 08:16:00,59.6,52.0,30.22,ESE,112,5.8,19.0,77,0.00,,,0.00,Rainwise IP-100,2013-10-12 12:16:00,
2013-10-12 08:21:00,59.6,53.0,30.22,East,90,10.0,17.0,78,0.00,,,0.00,Rainwise IP-100,2013-10-12 12:21:00,
2013-10-12 08:26:00,59.6,53.0,30.23,ENE,67,4.4,16.0,78,0.00,,,0.00,Rainwise IP-100,2013-10-12 12:26:00,
2013-10-12 08:31:00,59.6,53.0,30.22,ENE,67,11.0,16.0,78,0.00,,,0.00,Rainwise IP-100,2013-10-12 12:31:00,
2013-10-12 08:36:00,59.6,53.0,30.23,SE,135,6.3,17.0,78,0.00,,,0.00,Rainwise IP-100,2013-10-12 12:36:00,
2013-10-12 08:41:00,59.6,53.0,30.23,SE,135,4.0,18.0,79,0.00,,,0.00,Rainwise IP-100,2013-10-12 12:41:00,
2013-10-12 08:46:00,59.7,53.0,30.23,ENE,67,10.3,15.0,79,0.00,,,0.00,Rainwise IP-100,2013-10-12 12:46:00,
2013-10-12 08:51:00,60.2,53.0,30.22,ENE,67,8.4,17.0,79,0.00,,,0.00,Rainwise IP-100,2013-10-12 12:51:00,
2013-10-12 08:56:00,60.8,53.0,30.23,East,90,15.2,17.0,78,0.00,,,0.00,Rainwise IP-100,2013-10-12 12:56:00,
2013-10-12 09:01:00,61.2,54.0,30.23,East,90,6.8,16.0,78,0.00,,,0.00,Rainwise IP-100,2013-10-12 13:01:00,
2013-10-12 09:06:00,61.0,54.0,30.23,East,90,4.0,17.0,78,0.00,,,0.00,Rainwise IP-100,2013-10-12 13:06:00,
2013-10-12 09:11:00,60.9,54.0,30.23,SSE,157,5.6,18.0,79,0.00,,,0.00,Rainwise IP-100,2013-10-12 13:11:00,
2013-10-12 09:16:00,61.3,54.0,30.23,East,90,15.9,20.0,79,0.00,,,0.00,Rainwise IP-100,2013-10-12 13:16:00,
2013-10-12 09:21:00,61.8,54.0,30.23,ESE,112,11.0,22.0,78,0.00,,,0.00,Rainwise IP-100,2013-10-12 13:21:00,
2013-10-12 09:26:00,62.1,54.0,30.23,ENE,67,11.9,17.0,77,0.00,,,0.00,Rainwise IP-100,2013-10-12 13:26:00,
2013-10-12 09:31:00,62.4,55.0,30.23,ESE,112,14.5,15.0,77,0.00,,,0.00,Rainwise IP-100,2013-10-12 13:31:00,
2013-10-12 09:36:00,62.8,55.0,30.23,ESE,112,10.5,18.0,77,0.00,,,0.00,Rainwise IP-100,2013-10-12 13:36:00,
2013-10-12 09:41:00,63.1,55.0,30.23,ESE,112,7.9,20.0,76,0.00,,,0.00,Rainwise IP-100,2013-10-12 13:41:00,
2013-10-12 09:46:00,63.2,55.0,30.24,ESE,112,10.5,17.0,75,0.00,,,0.00,Rainwise IP-100,2013-10-12 13:46:00,
2013-10-12 09:51:00,63.0,55.0,30.24,ESE,112,9.8,18.0,75,0.00,,,0.00,Rainwise IP-100,2013-10-12 13:51:00,
2013-10-12 09:56:00,63.1,55.0,30.24,ESE,112,7.2,21.0,75,0.00,,,0.00,Rainwise IP-100,2013-10-12 13:56:00,
2013-10-12 10:01:00,62.9,55.0,30.24,ESE,112,16.1,19.0,75,0.00,,,0.00,Rainwise IP-100,2013-10-12 14:01:00,
2013-10-12 10:07:00,62.7,54.0,30.24,ESE,112,9.3,18.0,75,0.00,,,0.00,Rainwise IP-100,2013-10-12 14:07:00,
2013-10-12 10:12:00,63.0,55.0,30.24,ESE,112,15.4,25.0,75,0.00,,,0.00,Rainwise IP-100,2013-10-12 14:12:00,
2013-10-12 10:17:00,63.3,54.0,30.24,ENE,67,10.7,20.0,74,0.00,,,0.00,Rainwise IP-100,2013-10-12 14:17:00,
2013-10-12 10:22:00,63.3,54.0,30.24,East,90,10.7,22.0,74,0.00,,,0.00,Rainwise IP-100,2013-10-12 14:22:00,
2013-10-12 10:27:00,63.5,55.0,30.23,ESE,112,7.2,22.0,74,0.00,,,0.00,Rainwise IP-100,2013-10-12 14:27:00,
2013-10-12 10:32:00,63.9,55.0,30.23,NE,45,7.2,25.0,73,0.00,,,0.00,Rainwise IP-100,2013-10-12 14:32:00,
2013-10-12 10:37:00,64.5,56.0,30.23,ESE,112,12.1,21.0,73,0.00,,,0.00,Rainwise IP-100,2013-10-12 14:37:00,
2013-10-12 10:42:00,64.9,56.0,30.23,SSE,157,4.4,19.0,72,0.00,,,0.00,Rainwise IP-100,2013-10-12 14:42:00,
2013-10-12 10:47:00,65.2,55.0,30.24,East,90,19.6,21.0,71,0.00,,,0.00,Rainwise IP-100,2013-10-12 14:47:00,
2013-10-12 10:52:00,65.8,55.0,30.24,East,90,19.4,27.0,70,0.00,,,0.00,Rainwise IP-100,2013-10-12 14:52:00,
2013-10-12 10:57:00,65.7,54.0,30.25,ESE,112,7.5,20.0,69,0.00,,,0.00,Rainwise IP-100,2013-10-12 14:57:00,
2013-10-12 11:02:00,65.7,54.0,30.25,ESE,112,14.0,21.0,68,0.00,,,0.00,Rainwise IP-100,2013-10-12 15:02:00,
2013-10-12 11:07:00,66.2,55.0,30.26,East,90,11.7,18.0,68,0.00,,,0.00,Rainwise IP-100,2013-10-12 15:07:00,
2013-10-12 11:12:00,66.7,55.0,30.26,ENE,67,13.8,22.0,67,0.00,,,0.00,Rainwise IP-100,2013-10-12 15:12:00,
2013-10-12 11:17:00,67.1,56.0,30.26,ESE,112,12.1,19.0,68,0.00,,,0.00,Rainwise IP-100,2013-10-12 15:17:00,
2013-10-12 11:22:00,67.4,56.0,30.26,East,90,19.4,19.4,67,0.00,,,0.00,Rainwise IP-100,2013-10-12 15:22:00,
2013-10-12 11:27:00,67.3,55.0,30.26,ENE,67,5.6,26.0,66,0.00,,,0.00,Rainwise IP-100,2013-10-12 15:27:00,
2013-10-12 11:32:00,67.1,55.0,30.26,ESE,112,9.1,23.0,66,0.00,,,0.00,Rainwise IP-100,2013-10-12 15:32:00,
2013-10-12 11:37:00,67.5,56.0,30.26,SSE,157,17.7,20.0,66,0.00,,,0.00,Rainwise IP-100,2013-10-12 15:37:00,
2013-10-12 11:42:00,67.5,56.0,30.26,ESE,112,10.5,20.0,66,0.00,,,0.00,Rainwise IP-100,2013-10-12 15:42:00,
2013-10-12 11:47:00,66.9,55.0,30.26,ENE,67,14.9,17.0,66,0.00,,,0.00,Rainwise IP-100,2013-10-12 15:47:00,
2013-10-12 11:52:00,66.7,55.0,30.26,East,90,7.5,20.0,67,0.00,,,0.00,Rainwise IP-100,2013-10-12 15:52:00,
2013-10-12 11:57:00,66.5,55.0,30.26,ESE,112,4.9,21.0,67,0.00,,,0.00,Rainwise IP-100,2013-10-12 15:57:00,
2013-10-12 12:02:00,66.2,55.0,30.27,ESE,112,12.4,18.0,67,0.00,,,0.00,Rainwise IP-100,2013-10-12 16:02:00,
2013-10-12 12:07:00,66.2,54.0,30.26,East,90,13.3,21.0,66,0.00,,,0.00,Rainwise IP-100,2013-10-12 16:07:00,
2013-10-12 12:12:00,66.3,54.0,30.26,ENE,67,11.7,20.0,66,0.00,,,0.00,Rainwise IP-100,2013-10-12 16:12:00,
2013-10-12 12:17:00,66.6,55.0,30.26,SE,135,13.1,18.0,66,0.00,,,0.00,Rainwise IP-100,2013-10-12 16:17:00,
2013-10-12 12:22:00,66.8,55.0,30.27,ESE,112,9.6,20.0,66,0.00,,,0.00,Rainwise IP-100,2013-10-12 16:22:00,
2013-10-12 12:27:00,66.7,55.0,30.26,SE,135,10.0,22.0,66,0.00,,,0.00,Rainwise IP-100,2013-10-12 16:27:00,
2013-10-12 12:32:00,66.6,55.0,30.26,ESE,112,6.3,24.0,66,0.00,,,0.00,Rainwise IP-100,2013-10-12 16:32:00,
2013-10-12 12:37:00,66.5,55.0,30.26,ESE,112,15.9,26.0,67,0.00,,,0.00,Rainwise IP-100,2013-10-12 16:37:00,
2013-10-12 12:42:00,66.7,56.0,30.26,ESE,112,11.7,18.0,68,0.00,,,0.00,Rainwise IP-100,2013-10-12 16:42:00,
2013-10-12 12:47:00,66.8,56.0,30.26,ESE,112,9.6,21.0,69,0.00,,,0.00,Rainwise IP-100,2013-10-12 16:47:00,
2013-10-12 12:52:00,66.5,56.0,30.25,ENE,67,15.6,20.0,69,0.00,,,0.00,Rainwise IP-100,2013-10-12 16:52:00,
2013-10-12 12:57:00,66.3,56.0,30.26,ESE,112,7.7,21.0,70,0.00,,,0.00,Rainwise IP-100,2013-10-12 16:57:00,
2013-10-12 13:02:00,66.3,56.0,30.26,East,90,12.1,24.0,71,0.00,,,0.00,Rainwise IP-100,2013-10-12 17:02:00,
2013-10-12 13:07:00,66.3,56.0,30.26,SE,135,11.2,22.0,71,0.00,,,0.00,Rainwise IP-100,2013-10-12 17:07:00,
2013-10-12 13:12:00,66.5,57.0,30.25,ENE,67,9.1,16.0,71,0.00,,,0.00,Rainwise IP-100,2013-10-12 17:12:00,
2013-10-12 13:17:00,66.6,57.0,30.25,ESE,112,11.2,19.0,71,0.00,,,0.00,Rainwise IP-100,2013-10-12 17:17:00,
2013-10-12 13:22:00,66.4,56.0,30.26,ESE,112,24.2,24.2,69,0.00,,,0.00,Rainwise IP-100,2013-10-12 17:22:00,
2013-10-12 13:27:00,66.0,55.0,30.26,ESE,112,13.1,26.0,68,0.00,,,0.00,Rainwise IP-100,2013-10-12 17:27:00,
2013-10-12 13:32:00,66.0,54.0,30.26,ESE,112,12.8,25.0,67,0.00,,,0.00,Rainwise IP-100,2013-10-12 17:32:00,
2013-10-12 13:37:00,66.1,54.0,30.26,SE,135,17.7,23.0,66,0.00,,,0.00,Rainwise IP-100,2013-10-12 17:37:00,
2013-10-12 13:42:00,66.3,54.0,30.25,ESE,112,12.4,23.0,64,0.00,,,0.00,Rainwise IP-100,2013-10-12 17:42:00,
2013-10-12 13:47:00,66.2,53.0,30.26,SE,135,13.5,24.0,63,0.00,,,0.00,Rainwise IP-100,2013-10-12 17:47:00,
2013-10-12 13:52:00,65.9,53.0,30.26,SE,135,12.1,22.0,64,0.00,,,0.00,Rainwise IP-100,2013-10-12 17:52:00,
2013-10-12 13:57:00,65.5,53.0,30.26,ESE,112,11.0,21.0,65,0.00,,,0.00,Rainwise IP-100,2013-10-12 17:57:00,
2013-10-12 14:02:00,65.3,53.0,30.26,ENE,67,18.0,24.0,66,0.00,,,0.00,Rainwise IP-100,2013-10-12 18:02:00,
2013-10-12 14:07:00,65.3,53.0,30.26,ESE,112,20.5,20.5,66,0.00,,,0.00,Rainwise IP-100,2013-10-12 18:07:00,
2013-10-12 14:12:00,65.3,53.0,30.26,ESE,112,9.6,26.0,66,0.00,,,0.00,Rainwise IP-100,2013-10-12 18:12:00,
2013-10-12 14:17:00,65.3,53.0,30.26,ESE,112,16.6,23.0,66,0.00,,,0.00,Rainwise IP-100,2013-10-12 18:17:00,
2013-10-12 14:22:00,65.8,54.0,30.26,SE,135,8.4,25.0,66,0.00,,,0.00,Rainwise IP-100,2013-10-12 18:22:00,
2013-10-12 14:27:00,66.3,54.0,30.26,ESE,112,15.9,25.0,65,0.00,,,0.00,Rainwise IP-100,2013-10-12 18:27:00,
2013-10-12 14:32:00,66.1,54.0,30.27,ESE,112,13.1,23.0,65,0.00,,,0.00,Rainwise IP-100,2013-10-12 18:32:00,
2013-10-12 14:37:00,65.4,54.0,30.27,ENE,67,8.9,19.0,66,0.00,,,0.00,Rainwise IP-100,2013-10-12 18:37:00,
2013-10-12 14:42:00,65.1,54.0,30.27,ESE,112,12.4,21.0,68,0.00,,,0.00,Rainwise IP-100,2013-10-12 18:42:00,
2013-10-12 14:47:00,65.1,54.0,30.26,SSE,157,14.9,25.0,69,0.00,,,0.00,Rainwise IP-100,2013-10-12 18:47:00,
2013-10-12 14:52:00,65.6,54.0,30.27,ESE,112,6.1,21.0,69,0.00,,,0.00,Rainwise IP-100,2013-10-12 18:52:00,
2013-10-12 14:57:00,66.0,55.0,30.27,SE,135,12.1,22.0,68,0.00,,,0.00,Rainwise IP-100,2013-10-12 18:57:00,
2013-10-12 15:02:00,66.0,55.0,30.27,ESE,112,11.2,21.0,68,0.00,,,0.00,Rainwise IP-100,2013-10-12 19:02:00,
2013-10-12 15:07:00,65.9,55.0,30.27,ESE,112,11.9,21.0,69,0.00,,,0.00,Rainwise IP-100,2013-10-12 19:07:00,
2013-10-12 15:12:00,65.7,54.0,30.27,ESE,112,17.7,29.0,69,0.00,,,0.00,Rainwise IP-100,2013-10-12 19:12:00,
2013-10-12 15:17:00,65.5,54.0,30.28,SE,135,12.1,22.0,69,0.00,,,0.00,Rainwise IP-100,2013-10-12 19:17:00,
2013-10-12 15:22:00,65.4,55.0,30.27,ESE,112,7.5,23.0,70,0.00,,,0.00,Rainwise IP-100,2013-10-12 19:22:00,
2013-10-12 15:27:00,65.0,55.0,30.28,ESE,112,11.9,26.0,71,0.00,,,0.00,Rainwise IP-100,2013-10-12 19:27:00,
2013-10-12 15:32:00,64.5,56.0,30.28,ESE,112,11.2,22.0,74,0.00,,,0.00,Rainwise IP-100,2013-10-12 19:32:00,
2013-10-12 15:37:00,64.3,56.0,30.28,ESE,112,11.9,23.0,75,0.00,,,0.00,Rainwise IP-100,2013-10-12 19:37:00,
2013-10-12 15:42:00,64.3,56.0,30.28,ENE,67,10.7,25.0,75,0.00,,,0.00,Rainwise IP-100,2013-10-12 19:42:00,
2013-10-12 15:47:00,64.2,56.0,30.28,ESE,112,10.7,25.0,75,0.00,,,0.00,Rainwise IP-100,2013-10-12 19:47:00,
2013-10-12 15:52:00,64.0,56.0,30.28,ESE,112,13.3,24.0,75,0.00,,,0.00,Rainwise IP-100,2013-10-12 19:52:00,
2013-10-12 15:57:00,64.0,56.0,30.28,ESE,112,15.6,21.0,75,0.00,,,0.00,Rainwise IP-100,2013-10-12 19:57:00,
2013-10-12 16:02:00,64.0,56.0,30.29,East,90,9.8,21.0,76,0.00,,,0.00,Rainwise IP-100,2013-10-12 20:02:00,
2013-10-12 16:07:00,63.9,56.0,30.28,ESE,112,9.8,20.0,76,0.00,,,0.00,Rainwise IP-100,2013-10-12 20:07:00,
2013-10-12 16:12:00,63.8,56.0,30.28,East,90,14.2,22.0,77,0.00,,,0.00,Rainwise IP-100,2013-10-12 20:12:00,
2013-10-12 16:17:00,63.7,56.0,30.28,ENE,67,9.3,22.0,78,0.00,,,0.00,Rainwise IP-100,2013-10-12 20:17:00,
2013-10-12 16:22:00,63.6,56.0,30.29,ESE,112,14.0,21.0,78,0.00,,,0.00,Rainwise IP-100,2013-10-12 20:22:00,
2013-10-12 16:27:00,63.6,56.0,30.28,ESE,112,13.8,22.0,78,0.00,,,0.00,Rainwise IP-100,2013-10-12 20:27:00,
2013-10-12 16:32:00,63.5,56.0,30.28,ESE,112,11.9,18.0,77,0.00,,,0.00,Rainwise IP-100,2013-10-12 20:32:00,
2013-10-12 16:37:00,63.4,56.0,30.29,ESE,112,8.9,20.0,78,0.00,,,0.00,Rainwise IP-100,2013-10-12 20:37:00,
2013-10-12 16:42:00,63.3,56.0,30.29,ESE,112,5.6,18.0,79,0.00,,,0.00,Rainwise IP-100,2013-10-12 20:42:00,
2013-10-12 16:47:00,63.1,56.0,30.29,SSE,157,11.4,19.0,80,0.00,,,0.00,Rainwise IP-100,2013-10-12 20:47:00,
2013-10-12 16:52:00,62.7,56.0,30.29,SE,135,10.3,22.0,81,0.00,,,0.00,Rainwise IP-100,2013-10-12 20:52:00,
2013-10-12 16:57:00,62.5,56.0,30.29,ESE,112,15.4,21.0,81,0.00,,,0.00,Rainwise IP-100,2013-10-12 20:57:00,
2013-10-12 17:02:00,62.6,56.0,30.29,ESE,112,14.0,24.0,81,0.00,,,0.00,Rainwise IP-100,2013-10-12 21:02:00,
2013-10-12 17:07:00,62.6,56.0,30.30,ESE,112,21.2,21.2,81,0.00,,,0.00,Rainwise IP-100,2013-10-12 21:07:00,
2013-10-12 17:12:00,62.4,56.0,30.30,ESE,112,14.0,25.0,81,0.00,,,0.00,Rainwise IP-100,2013-10-12 21:12:00,
2013-10-12 17:17:00,62.3,56.0,30.30,ENE,67,8.4,15.0,82,0.00,,,0.00,Rainwise IP-100,2013-10-12 21:17:00,
2013-10-12 17:22:00,62.1,56.0,30.30,SE,135,9.8,22.0,83,0.00,,,0.00,Rainwise IP-100,2013-10-12 21:22:00,
2013-10-12 17:27:00,61.9,56.0,30.30,ESE,112,12.4,25.0,83,0.00,,,0.00,Rainwise IP-100,2013-10-12 21:27:00,
2013-10-12 17:32:00,61.8,56.0,30.30,ESE,112,10.5,22.0,84,0.00,,,0.00,Rainwise IP-100,2013-10-12 21:32:00,
2013-10-12 17:37:00,61.7,56.0,30.30,East,90,9.8,19.0,84,0.00,,,0.00,Rainwise IP-100,2013-10-12 21:37:00,
2013-10-12 17:42:00,61.5,56.0,30.30,ENE,67,6.8,20.0,84,0.00,,,0.00,Rainwise IP-100,2013-10-12 21:42:00,
2013-10-12 17:47:00,61.4,57.0,30.30,East,90,11.9,23.0,85,0.00,,,0.00,Rainwise IP-100,2013-10-12 21:47:00,
2013-10-12 17:52:00,61.3,56.0,30.29,SSE,157,7.5,28.0,85,0.00,,,0.00,Rainwise IP-100,2013-10-12 21:52:00,
2013-10-12 17:57:00,61.1,56.0,30.30,ESE,112,11.7,18.0,86,0.00,,,0.00,Rainwise IP-100,2013-10-12 21:57:00,
2013-10-12 18:02:00,60.9,56.0,30.30,ESE,112,6.5,16.0,86,0.00,,,0.00,Rainwise IP-100,2013-10-12 22:02:00,
2013-10-12 18:07:00,60.8,56.0,30.30,ESE,112,10.7,23.0,86,0.00,,,0.00,Rainwise IP-100,2013-10-12 22:07:00,
2013-10-12 18:12:00,60.7,56.0,30.30,ESE,112,12.1,20.0,87,0.00,,,0.00,Rainwise IP-100,2013-10-12 22:12:00,
2013-10-12 18:17:00,60.6,56.0,30.30,ESE,112,13.3,16.0,87,0.00,,,0.00,Rainwise IP-100,2013-10-12 22:17:00,
2013-10-12 18:22:00,60.6,56.0,30.30,ESE,112,15.9,21.0,87,0.00,,,0.00,Rainwise IP-100,2013-10-12 22:22:00,
2013-10-12 18:27:00,60.7,57.0,30.31,ESE,112,10.7,19.0,88,0.00,,,0.00,Rainwise IP-100,2013-10-12 22:27:00,
2013-10-12 18:32:00,60.9,57.0,30.31,East,90,10.7,19.0,87,0.00,,,0.00,Rainwise IP-100,2013-10-12 22:32:00,
2013-10-12 18:37:00,61.2,56.0,30.31,ESE,112,11.7,17.0,85,0.00,,,0.00,Rainwise IP-100,2013-10-12 22:37:00,
2013-10-12 18:42:00,61.3,56.0,30.30,East,90,11.0,22.0,84,0.00,,,0.00,Rainwise IP-100,2013-10-12 22:42:00,
2013-10-12 18:47:00,61.4,56.0,30.31,ESE,112,7.7,19.0,84,0.00,,,0.00,Rainwise IP-100,2013-10-12 22:47:00,
2013-10-12 18:52:00,61.4,56.0,30.31,ESE,112,17.3,20.0,84,0.00,,,0.00,Rainwise IP-100,2013-10-12 22:52:00,
2013-10-12 18:57:00,61.3,56.0,30.31,ESE,112,7.7,17.0,84,0.00,,,0.00,Rainwise IP-100,2013-10-12 22:57:00,
2013-10-12 19:02:00,61.2,56.0,30.31,SE,135,13.5,19.0,84,0.00,,,0.00,Rainwise IP-100,2013-10-12 23:02:00,
2013-10-12 19:07:00,61.1,56.0,30.32,East,90,15.2,24.0,84,0.00,,,0.00,Rainwise IP-100,2013-10-12 23:07:00,
2013-10-12 19:12:00,61.0,56.0,30.32,ESE,112,9.1,20.0,84,0.00,,,0.00,Rainwise IP-100,2013-10-12 23:12:00,
2013-10-12 19:17:00,60.9,56.0,30.32,East,90,8.2,19.0,84,0.00,,,0.00,Rainwise IP-100,2013-10-12 23:17:00,
2013-10-12 19:22:00,60.8,55.0,30.33,ENE,67,10.5,22.0,83,0.00,,,0.00,Rainwise IP-100,2013-10-12 23:22:00,
2013-10-12 19:27:00,60.8,55.0,30.33,ESE,112,5.6,24.0,83,0.00,,,0.00,Rainwise IP-100,2013-10-12 23:27:00,
2013-10-12 19:32:00,60.8,54.0,30.32,ESE,112,20.8,20.8,82,0.00,,,0.00,Rainwise IP-100,2013-10-12 23:32:00,
2013-10-12 19:37:00,60.7,54.0,30.32,NE,45,12.1,21.0,82,0.00,,,0.00,Rainwise IP-100,2013-10-12 23:37:00,
2013-10-12 19:42:00,60.6,54.0,30.33,East,90,14.0,18.0,82,0.00,,,0.00,Rainwise IP-100,2013-10-12 23:42:00,
2013-10-12 19:47:00,60.5,54.0,30.33,ESE,112,0.0,19.0,82,0.00,,,0.00,Rainwise IP-100,2013-10-12 23:47:00,
2013-10-12 19:52:00,60.4,54.0,30.33,ESE,112,9.1,17.0,82,0.00,,,0.00,Rainwise IP-100,2013-10-12 23:52:00,
2013-10-12 19:57:00,60.3,54.0,30.34,SE,135,12.1,22.0,83,0.00,,,0.00,Rainwise IP-100,2013-10-12 23:57:00,
2013-10-12 20:02:00,60.2,54.0,30.34,ESE,112,6.3,17.0,82,0.00,,,0.00,Rainwise IP-100,2013-10-13 00:02:00,
2013-10-12 20:07:00,60.0,54.0,30.34,ESE,112,10.3,23.0,82,0.00,,,0.00,Rainwise IP-100,2013-10-13 00:07:00,
2013-10-12 20:12:00,60.0,54.0,30.34,NE,45,5.6,20.0,82,0.00,,,0.00,Rainwise IP-100,2013-10-13 00:12:00,
2013-10-12 20:17:00,60.0,54.0,30.34,ESE,112,9.8,19.0,82,0.00,,,0.00,Rainwise IP-100,2013-10-13 00:17:00,
2013-10-12 20:22:00,59.9,54.0,30.34,ESE,112,6.3,17.0,82,0.00,,,0.00,Rainwise IP-100,2013-10-13 00:22:00,
2013-10-12 20:27:00,59.9,54.0,30.34,ESE,112,7.0,17.0,82,0.00,,,0.00,Rainwise IP-100,2013-10-13 00:27:00,
2013-10-12 20:32:00,59.8,54.0,30.35,ESE,112,15.6,18.0,82,0.00,,,0.00,Rainwise IP-100,2013-10-13 00:32:00,
2013-10-12 20:37:00,59.8,54.0,30.35,ESE,112,10.0,17.0,82,0.00,,,0.00,Rainwise IP-100,2013-10-13 00:37:00,
2013-10-12 20:42:00,59.8,54.0,30.35,SE,135,7.7,23.0,82,0.00,,,0.00,Rainwise IP-100,2013-10-13 00:42:00,
2013-10-12 20:47:00,59.7,54.0,30.35,SE,135,11.9,18.0,82,0.00,,,0.00,Rainwise IP-100,2013-10-13 00:47:00,
2013-10-12 20:52:00,59.6,54.0,30.35,SSE,157,5.1,20.0,82,0.00,,,0.00,Rainwise IP-100,2013-10-13 00:52:00,
2013-10-12 20:57:00,59.6,54.0,30.36,East,90,9.3,18.0,82,0.00,,,0.00,Rainwise IP-100,2013-10-13 00:57:00,
2013-10-12 21:02:00,59.5,54.0,30.36,East,90,7.2,21.0,83,0.00,,,0.00,Rainwise IP-100,2013-10-13 01:02:00,
2013-10-12 21:07:00,59.5,54.0,30.35,East,90,14.5,17.0,83,0.00,,,0.00,Rainwise IP-100,2013-10-13 01:07:00,
2013-10-12 21:12:00,59.5,54.0,30.36,ESE,112,3.3,23.0,83,0.00,,,0.00,Rainwise IP-100,2013-10-13 01:12:00,
2013-10-12 21:17:00,59.5,54.0,30.36,East,90,11.9,20.0,82,0.00,,,0.00,Rainwise IP-100,2013-10-13 01:17:00,
2013-10-12 21:22:00,59.5,54.0,30.36,ESE,112,2.6,17.0,82,0.00,,,0.00,Rainwise IP-100,2013-10-13 01:22:00,
2013-10-12 21:27:00,59.4,54.0,30.36,SSE,157,4.2,19.0,82,0.00,,,0.00,Rainwise IP-100,2013-10-13 01:27:00,
2013-10-12 21:32:00,59.4,54.0,30.36,ENE,67,7.0,19.0,82,0.00,,,0.00,Rainwise IP-100,2013-10-13 01:32:00,
2013-10-12 21:37:00,59.4,54.0,30.36,ESE,112,11.4,20.0,82,0.00,,,0.00,Rainwise IP-100,2013-10-13 01:37:00,
2013-10-12 21:42:00,59.4,54.0,30.36,SE,135,5.8,20.0,82,0.00,,,0.00,Rainwise IP-100,2013-10-13 01:42:00,
2013-10-12 21:47:00,59.3,53.0,30.36,SE,135,17.3,20.0,81,0.00,,,0.00,Rainwise IP-100,2013-10-13 01:47:00,
2013-10-12 21:52:00,59.2,53.0,30.36,ESE,112,9.3,21.0,81,0.00,,,0.00,Rainwise IP-100,2013-10-13 01:52:00,
2013-10-12 21:57:00,59.1,53.0,30.36,East,90,10.0,19.0,81,0.00,,,0.00,Rainwise IP-100,2013-10-13 01:57:00,
2013-10-12 21:58:00,59.1,53.0,30.36,SSE,157,8.4,19.0,81,0.00,,,0.00,Rainwise IP-100,2013-10-13 01:58:00,
2013-10-12 22:03:00,59.1,53.0,30.37,ESE,112,15.4,24.0,81,0.00,,,0.00,Rainwise IP-100,2013-10-13 02:03:00,
2013-10-12 22:08:00,59.0,53.0,30.37,ESE,112,8.4,26.0,80,0.00,,,0.00,Rainwise IP-100,2013-10-13 02:08:00,
2013-10-12 22:13:00,58.9,53.0,30.36,ENE,67,4.0,16.0,80,0.00,,,0.00,Rainwise IP-100,2013-10-13 02:13:00,
2013-10-12 22:18:00,58.8,53.0,30.37,East,90,7.5,17.0,80,0.00,,,0.00,Rainwise IP-100,2013-10-13 02:18:00,
2013-10-12 22:23:00,58.6,53.0,30.37,SSE,157,4.4,16.0,80,0.00,,,0.00,Rainwise IP-100,2013-10-13 02:23:00,
2013-10-12 22:28:00,58.4,53.0,30.37,ESE,112,6.8,16.0,81,0.00,,,0.00,Rainwise IP-100,2013-10-13 02:28:00,
2013-10-12 22:33:00,58.3,53.0,30.36,ESE,112,9.1,26.0,81,0.00,,,0.00,Rainwise IP-100,2013-10-13 02:33:00,
2013-10-12 22:38:00,58.3,53.0,30.37,ENE,67,14.5,18.0,81,0.00,,,0.00,Rainwise IP-100,2013-10-13 02:38:00,
2013-10-12 22:43:00,58.2,53.0,30.37,ESE,112,8.6,19.0,81,0.00,,,0.00,Rainwise IP-100,2013-10-13 02:43:00,
2013-10-12 22:48:00,58.2,53.0,30.37,ESE,112,6.3,18.0,81,0.00,,,0.00,Rainwise IP-100,2013-10-13 02:48:00,
2013-10-12 22:53:00,58.1,53.0,30.37,ESE,112,21.2,22.0,81,0.00,,,0.00,Rainwise IP-100,2013-10-13 02:53:00,
2013-10-12 22:58:00,58.1,53.0,30.36,ESE,112,9.1,23.0,81,0.00,,,0.00,Rainwise IP-100,2013-10-13 02:58:00,
2013-10-12 23:03:00,58.1,53.0,30.37,SE,135,12.6,19.0,81,0.00,,,0.00,Rainwise IP-100,2013-10-13 03:03:00,
2013-10-12 23:08:00,58.1,53.0,30.37,ESE,112,8.9,20.0,81,0.00,,,0.00,Rainwise IP-100,2013-10-13 03:08:00,
2013-10-12 23:13:00,58.2,53.0,30.37,East,90,11.2,21.0,81,0.00,,,0.00,Rainwise IP-100,2013-10-13 03:13:00,
2013-10-12 23:18:00,58.4,53.0,30.37,ESE,112,7.0,17.0,81,0.00,,,0.00,Rainwise IP-100,2013-10-13 03:18:00,
2013-10-12 23:23:00,58.4,53.0,30.36,ENE,67,5.1,21.0,82,0.00,,,0.00,Rainwise IP-100,2013-10-13 03:23:00,
2013-10-12 23:28:00,58.3,53.0,30.37,ESE,112,10.0,18.0,82,0.00,,,0.00,Rainwise IP-100,2013-10-13 03:28:00,
2013-10-12 23:33:00,58.2,53.0,30.37,ESE,112,16.1,22.0,82,0.00,,,0.00,Rainwise IP-100,2013-10-13 03:33:00,
2013-10-12 23:38:00,58.1,53.0,30.36,ESE,112,11.4,21.0,82,0.00,,,0.00,Rainwise IP-100,2013-10-13 03:38:00,
2013-10-12 23:43:00,58.1,53.0,30.37,ESE,112,7.9,17.0,82,0.00,,,0.00,Rainwise IP-100,2013-10-13 03:43:00,
2013-10-12 23:48:00,58.2,53.0,30.37,East,90,10.5,20.0,82,0.00,,,0.00,Rainwise IP-100,2013-10-13 03:48:00,
2013-10-12 23:53:00,58.1,53.0,30.38,SE,135,7.7,19.0,81,0.00,,,0.00,Rainwise IP-100,2013-10-13 03:53:00,
2013-10-12 23:58:00,58.1,53.0,30.37,ENE,67,7.7,22.0,81,0.00,,,0.00,Rainwise IP-100,2013-10-13 03:58:00,